Regional Weather Roundup
Issued by NWS Kansas City/Pleasant Hill, MO

Home | Current Version | Previous Version | Graphics & Text | Print | Product List | Glossary Off
Versions: 1 2 3 4 5 6 7 8 9 10 11 12 13 14 15 16 17 18 19 20 21 22 23 24 25 26 27 28 29 30 31 32 33 34 35 36 37 38 39 40 41 42 43 44 45 46 47 48 49 50

000
ASUS43 KEAX 271210
RWREAX

WEATHER ROUNDUP FOR EASTERN KANSAS AND NORTHWEST MISSOURI
NATIONAL WEATHER SERVICE KANSAS CITY/PLEASANT HILL MO
700 AM CDT THU AUG 27 2015

KSZ040-057-103>105-MOZ028-029-037-043-271300-
...KANSAS CITY METROPOLITAN AREA...

CITY           SKY/WX    TMP DP  RH WIND       PRES   REMARKS
K.C. INTL      LGT RAIN  65  56  72 SE13      30.08S
6HR MIN TEMP:  63; 6HR MAX TEMP:  67; 6HR PCP:  0.01;

K.C. DOWNTOWN  MOCLDY    68  56  65 SE7       30.09R
6HR MIN TEMP:  66; 6HR MAX TEMP:  70;

LEES SUMMIT    PTCLDY    64  55  72 SE7       30.10S
6HR MIN TEMP:  63; 6HR MAX TEMP:  66;

OLATHE - IXD   LGT RAIN  63  59  87 SE13      30.10R
6HR MIN TEMP:  62; 6HR MAX TEMP:  66; 6HR PCP:  0.12;

OLATHE - OJC   TSTM      63  57  81 SE14      30.08S
6HR MIN TEMP:  63; 6HR MAX TEMP:  66; 6HR PCP:  0.13;

LAWRENCE       MOCLDY    64  60  87 SE5       30.07S

$$

MOZ001>008-011>017-020>025-030>033-038>040-044>046-053-054-271300-
...NORTHERN AND CENTRAL MISSOURI...

CITY           SKY/WX    TMP DP  RH WIND       PRES   REMARKS
ST. JOSEPH     MOCLDY    65  56  72 SE6       30.07F
6HR MIN TEMP:  60; 6HR MAX TEMP:  66;

MOSBY            N/A     55  55 100 CALM      30.10S
WARRENSBURG    CLEAR     55  54  94 E3        30.10S
WHITEMAN AFB   PTCLDY    58  54  84 SE5       30.10S
6HR MIN TEMP:  58; 6HR MAX TEMP:  62;

CLINTON          N/A     61  55  82 CALM      30.11S
SEDALIA        CLEAR     57  54  89 CALM      30.14R
6HR MIN TEMP:  56; 6HR MAX TEMP:  61;

WARSAW         NOT AVBL
CHILLICOTHE      N/A     58  55  90 CALM      30.13S
6HR MIN TEMP:  57; 6HR MAX TEMP:  60;

KIRKSVILLE     CLEAR     55  52  89 S3        30.16R
6HR MIN TEMP:  53; 6HR MAX TEMP:  59;


$$

MOZ041-047>049-056>058-063>065-088>090-097-271300-
...EASTERN AND SOUTHERN MISSOURI...

CITY           SKY/WX    TMP DP  RH WIND       PRES   REMARKS
ST. LOUIS INTL CLEAR     61  54  77 CALM      30.18R
6HR MIN TEMP:  59; 6HR MAX TEMP:  64;

SPIRIT OF STL  CLEAR     55  55 100 CALM      30.18R
COLUMBIA       CLEAR     58  56  93 E7        30.15F
JEFFERSON CITY CLEAR     55  54  96 SE6       30.14F
ROLLA          CLEAR     58  54  86 SE8       30.14F
OSAGE BEACH    CLEAR     55  52  88 SE3       30.14S
SPRINGFIELD    CLEAR     62  54  74 SE9       30.12F
BRANSON        PTCLDY    59  57  94 SE7       30.15S
JOPLIN         CLOUDY    66  62  87 SE8       30.10S
WEST PLAINS    CLEAR     54  51  90 CALM      30.17S

$$

IAZ060-094-KSZ022-034>040-054-083-096-NEZ052-066-093-271300-
...KANSAS...SOUTHEAST NEBRASKA AND IOWA...

CITY           SKY/WX    TMP DP  RH WIND       PRES   REMARKS
TOPEKA         PTCLDY    67  62  84 E8        30.05S
6HR MIN TEMP:  66; 6HR MAX TEMP:  69;

MANHATTAN      MOCLDY    70  63  78 E6        30.01S
EMPORIA        PTCLDY    65  60  84 SE13      30.04F
CHANUTE        TSTM      68  66  93 S14       30.10R FOG
WICHITA        MOCLDY    71  66  84 S9        30.01F
OMAHA          CLOUDY    66  57  72 SE12      30.04R
LINCOLN        LGT RAIN  69  61  75 CALM      30.03R
FALLS CITY     PTCLDY    63  60  90 SE7       30.03F
LAMONI         PTCLDY    60  54  80 SE8       30.11F
DES MOINES     CLOUDY    59  53  80 SE8       30.11F

$$



USA.gov is the U.S. government's official web portal to all federal, state and local government web resources and services.